Weather in Udon Thani

Thailand     17°24′25″N   102°47′25″E
temp.,
°C
wind,
m/s
gust,
m/s
humid.,
%
clouds,
%
prec.,
mm/h
press.,
hPa
HPBL,
m
8 august, mon
mon801:00+24ene2397100 7.1 1005132
04:00+23e1298100 14.8 1004125
07:00+23e1298100 32.1 1005110
10:00+24wnw129699 4.3 1006139
13:00+28wnw4380100 6.6 1004793
16:00+26wnw4686100 1.4 1003418
19:00+25wnw2691100 5.1 1004116
22:00+24wnw3794100 2.8 1007246
9 august, tue
tue901:00+23w3896100 4.3 1006336
04:00+23wsw3896100 0.4 1005366
07:00+23wsw379585 0.9 1006303
10:00+27w567941 0.0 1006675
13:00+30w556752 0.1 10031220
16:00+30w357157 1.4 1001839
19:00+26wnw3587100 6.7 100387
22:00+24se3593100 8.9 1005132
10 august, wed
wed1001:00+24ssw3696100 10.4 1004212
04:00+24wsw2595100 1.2 1003197
07:00+24sw239052 1.2 1005188
10:00+27wsw227499 0.0 1005857
13:00+30w126458 0.5 10031175
16:00+30ssw126851 2.2 1001861
19:00+25sse228746 6.3 100321
22:00+25sse2491100 1.0 100587
11 august, thu
thu1101:00+24s1192100 1.3 100319
04:00+24se1194100 0.1 100317
07:00+24s2394100 0.6 1004151
10:00+28se1177100 1.6 1005641
13:00+30w2271100 6.6 1003966
16:00+29w1171100 4.4 1002792
19:00+26sse1185100 9.4 100312
22:00+26s2287100 2.5 100521
12 august, fri
fri1201:00+25ene0088100 7.3 100411
04:00+25ese2293100 2.8 100344
07:00+25sse2292100 9.4 100593
10:00+25e3391100 3.8 1006202
13:00+28ne217684 5.7 1004662
16:00+30nne2170100 0.4 1002893
19:00+25ene2491100 1.4 1004105
22:00+24ne1295100 5.5 100666